TimePST,TemperatureF,Dew PointF,Humidity,Sea Level PressureIn,VisibilityMPH,Wind Direction,Wind SpeedMPH,Gust SpeedMPH,PrecipitationIn,Events,Conditions,WindDirDegrees,DateUTC
12:56 AM,33.1,27.0,78,30.11,9.0,Calm,Calm,-,N/A,,Clear,0,2014-01-05 08:56:00
1:56 AM,30.9,26.1,82,30.11,9.0,Calm,Calm,-,N/A,,Clear,0,2014-01-05 09:56:00
2:56 AM,27.0,24.1,89,30.14,10.0,Calm,Calm,-,N/A,,Clear,0,2014-01-05 10:56:00
3:56 AM,30.0,25.0,82,30.14,10.0,Calm,Calm,-,N/A,,Clear,0,2014-01-05 11:56:00
4:56 AM,27.0,23.0,85,30.15,10.0,Calm,Calm,-,N/A,,Clear,0,2014-01-05 12:56:00
5:56 AM,27.0,21.9,81,30.17,10.0,Calm,Calm,-,N/A,,Clear,0,2014-01-05 13:56:00
6:56 AM,25.0,21.0,85,30.19,10.0,Calm,Calm,-,N/A,,Clear,0,2014-01-05 14:56:00
7:56 AM,27.0,21.9,81,30.21,10.0,Calm,Calm,-,N/A,,Clear,0,2014-01-05 15:56:00
8:56 AM,32.0,26.1,79,30.23,10.0,Calm,Calm,-,N/A,,Clear,0,2014-01-05 16:56:00
9:56 AM,39.0,25.0,57,30.24,10.0,Calm,Calm,-,N/A,,Clear,0,2014-01-05 17:56:00
10:56 AM,48.9,23.0,36,30.23,10.0,Calm,Calm,-,N/A,,Clear,0,2014-01-05 18:56:00
11:56 AM,55.9,19.0,24,30.20,10.0,North,3.5,-,N/A,,Clear,350,2014-01-05 19:56:00
12:56 PM,62.1,14.0,15,30.16,10.0,Calm,Calm,-,N/A,,Clear,0,2014-01-05 20:56:00
1:56 PM,66.9,10.0,11,30.14,10.0,Calm,Calm,-,N/A,,Clear,0,2014-01-05 21:56:00
2:56 PM,66.9,14.0,13,30.13,10.0,West,3.5,-,N/A,,Clear,280,2014-01-05 22:56:00
3:56 PM,61.0,15.1,17,30.13,10.0,West,5.8,-,N/A,,Clear,270,2014-01-05 23:56:00
4:56 PM,54.0,18.0,24,30.14,10.0,Calm,Calm,-,N/A,,Clear,0,2014-01-06 00:56:00
5:56 PM,50.0,19.9,31,30.17,10.0,Calm,Calm,-,N/A,,Clear,0,2014-01-06 01:56:00
6:56 PM,46.9,21.0,36,30.19,9.0,Calm,Calm,-,N/A,,Clear,0,2014-01-06 02:56:00
7:56 PM,41.0,19.9,43,30.20,10.0,Calm,Calm,-,N/A,,Clear,0,2014-01-06 03:56:00
8:56 PM,39.9,21.9,49,30.22,8.0,Calm,Calm,-,N/A,,Clear,0,2014-01-06 04:56:00
9:56 PM,35.1,21.0,57,30.23,10.0,Calm,Calm,-,N/A,,Clear,0,2014-01-06 05:56:00
10:56 PM,36.0,21.9,57,30.24,10.0,Calm,Calm,-,N/A,,Clear,0,2014-01-06 06:56:00
11:56 PM,35.1,21.9,59,30.24,10.0,Calm,Calm,-,N/A,,Clear,0,2014-01-06 07:56:00